contact:dominique.lefevre@mio.osupytheas.fr, maurice.libes@osupytheas.fr, didier.mallarino@osupytheas.fr
Project:EMSO http://www.emso-fr.org/EMSO-France
Depth: 2436.0 m
Title:EMSO Ligure Ouest : Data MII capteur MICROCAT
DateTime_Computer,Latitude,Longitude,Temperature,Conductivity,Pressure,DateTime_Instrument
DateTime_Computer,Latitude,Longitude,degC,S m-1,dbar,DateTime_Instrument
2019-10-22T00:01:21Z,42.805,6.029,13.2958,4.59957,2469.97,2019-10-22T02:01:47Z
2019-10-22T00:04:25Z,42.805,6.029,13.2960,4.59957,2469.947,2019-10-22T02:04:50Z
2019-10-22T00:07:28Z,42.805,6.029,13.2962,4.59956,2469.97,2019-10-22T02:07:54Z
2019-10-22T00:10:31Z,42.805,6.029,13.2958,4.59956,2469.97,2019-10-22T02:10:57Z
2019-10-22T00:13:34Z,42.805,6.029,13.2958,4.59957,2469.947,2019-10-22T02:14:00Z
2019-10-22T00:16:37Z,42.805,6.029,13.2961,4.59958,2469.947,2019-10-22T02:17:03Z
2019-10-22T00:19:41Z,42.805,6.029,13.2958,4.59956,2469.947,2019-10-22T02:20:07Z
2019-10-22T00:22:44Z,42.805,6.029,13.2960,4.59956,2469.947,2019-10-22T02:23:10Z
2019-10-22T00:25:47Z,42.805,6.029,13.2958,4.59956,2469.97,2019-10-22T02:26:13Z
2019-10-22T00:28:50Z,42.805,6.029,13.2958,4.59960,2469.97,2019-10-22T02:29:16Z
2019-10-22T00:31:53Z,42.805,6.029,13.2957,4.59957,2469.947,2019-10-22T02:32:19Z
2019-10-22T00:34:57Z,42.805,6.029,13.2957,4.59957,2469.97,2019-10-22T02:35:23Z
2019-10-22T00:38:00Z,42.805,6.029,13.2961,4.59957,2469.97,2019-10-22T02:38:26Z
2019-10-22T00:41:03Z,42.805,6.029,13.2961,4.59958,2469.96,2019-10-22T02:41:29Z
2019-10-22T00:44:06Z,42.805,6.029,13.2958,4.59963,2469.923,2019-10-22T02:44:32Z
2019-10-22T00:47:10Z,42.805,6.029,13.2961,4.59956,2469.96,2019-10-22T02:47:35Z
2019-10-22T00:50:13Z,42.805,6.029,13.2958,4.59958,2469.984,2019-10-22T02:50:39Z
2019-10-22T00:53:16Z,42.805,6.029,13.2960,4.59961,2469.97,2019-10-22T02:53:42Z
2019-10-22T00:56:19Z,42.805,6.029,13.2959,4.59957,2469.96,2019-10-22T02:56:45Z
2019-10-22T00:59:23Z,42.805,6.029,13.2957,4.59957,2469.96,2019-10-22T02:59:48Z
2019-10-22T01:02:26Z,42.805,6.029,13.2961,4.59958,2469.947,2019-10-22T03:02:52Z
2019-10-22T01:05:29Z,42.805,6.029,13.2958,4.59956,2469.96,2019-10-22T03:05:55Z
2019-10-22T01:08:32Z,42.805,6.029,13.2958,4.59958,2470.007,2019-10-22T03:08:58Z
2019-10-22T01:11:35Z,42.805,6.029,13.2958,4.59956,2469.974,2019-10-22T03:12:01Z
2019-10-22T01:14:39Z,42.805,6.029,13.2961,4.59957,2469.97,2019-10-22T03:15:04Z
2019-10-22T01:17:42Z,42.805,6.029,13.2958,4.59957,2469.96,2019-10-22T03:18:08Z
2019-10-22T01:20:45Z,42.805,6.029,13.2957,4.59960,2469.96,2019-10-22T03:21:11Z
2019-10-22T01:23:49Z,42.805,6.029,13.2960,4.59958,2469.947,2019-10-22T03:24:14Z
2019-10-22T01:26:52Z,42.805,6.029,13.2959,4.59956,2469.984,2019-10-22T03:27:18Z
2019-10-22T01:29:55Z,42.805,6.029,13.2961,4.59958,2469.97,2019-10-22T03:30:21Z
2019-10-22T01:32:58Z,42.805,6.029,13.2958,4.59960,2469.937,2019-10-22T03:33:24Z
2019-10-22T01:36:01Z,42.805,6.029,13.2957,4.59958,2469.947,2019-10-22T03:36:27Z
2019-10-22T01:39:05Z,42.805,6.029,13.2957,4.59960,2469.937,2019-10-22T03:39:31Z
2019-10-22T01:42:08Z,42.805,6.029,13.2959,4.59956,2469.923,2019-10-22T03:42:34Z
2019-10-22T01:45:11Z,42.805,6.029,13.2958,4.59957,2469.947,2019-10-22T03:45:37Z
2019-10-22T01:48:14Z,42.805,6.029,13.2957,4.59958,2469.923,2019-10-22T03:48:40Z
2019-10-22T01:51:17Z,42.805,6.029,13.2958,4.59957,2469.96,2019-10-22T03:51:43Z
2019-10-22T01:54:21Z,42.805,6.029,13.2956,4.59957,2469.96,2019-10-22T03:54:47Z
2019-10-22T01:57:24Z,42.805,6.029,13.2958,4.59958,2469.947,2019-10-22T03:57:50Z
2019-10-22T02:00:27Z,42.805,6.029,13.2958,4.59957,2469.96,2019-10-22T04:00:53Z
2019-10-22T02:03:30Z,42.805,6.029,13.2958,4.59957,2469.947,2019-10-22T04:03:56Z
2019-10-22T02:06:34Z,42.805,6.029,13.2961,4.59957,2469.984,2019-10-22T04:06:59Z
2019-10-22T02:09:37Z,42.805,6.029,13.2960,4.59957,2469.923,2019-10-22T04:10:03Z
2019-10-22T02:12:40Z,42.805,6.029,13.2959,4.59957,2469.9,2019-10-22T04:13:06Z
2019-10-22T02:15:43Z,42.805,6.029,13.2961,4.59961,2469.947,2019-10-22T04:16:09Z
2019-10-22T02:18:46Z,42.805,6.029,13.2961,4.59957,2469.947,2019-10-22T04:19:12Z
2019-10-22T02:21:50Z,42.805,6.029,13.2957,4.59957,2469.96,2019-10-22T04:22:16Z
2019-10-22T02:24:53Z,42.805,6.029,13.2958,4.59957,2469.984,2019-10-22T04:25:19Z
2019-10-22T02:27:56Z,42.805,6.029,13.2957,4.59958,2469.97,2019-10-22T04:28:22Z
2019-10-22T02:30:59Z,42.805,6.029,13.2956,4.59957,2469.96,2019-10-22T04:31:25Z
2019-10-22T02:34:03Z,42.805,6.029,13.2959,4.59958,2469.947,2019-10-22T04:34:28Z
2019-10-22T02:37:06Z,42.805,6.029,13.2960,4.59957,2469.947,2019-10-22T04:37:32Z
2019-10-22T02:40:09Z,42.805,6.029,13.2963,4.59958,2469.984,2019-10-22T04:40:35Z
2019-10-22T02:43:13Z,42.805,6.029,13.2961,4.59960,2469.923,2019-10-22T04:43:38Z
2019-10-22T02:46:16Z,42.805,6.029,13.2961,4.59961,2469.96,2019-10-22T04:46:42Z
2019-10-22T02:49:19Z,42.805,6.029,13.2957,4.59958,2469.947,2019-10-22T04:49:45Z
2019-10-22T02:52:23Z,42.805,6.029,13.2960,4.59958,2469.947,2019-10-22T04:52:48Z
2019-10-22T02:55:26Z,42.805,6.029,13.2961,4.59961,2469.923,2019-10-22T04:55:52Z
2019-10-22T02:58:29Z,42.805,6.029,13.2961,4.59958,2469.923,2019-10-22T04:58:55Z
2019-10-22T03:01:32Z,42.805,6.029,13.2961,4.59960,2469.96,2019-10-22T05:01:58Z
2019-10-22T03:04:35Z,42.805,6.029,13.2961,4.59961,2469.947,2019-10-22T05:05:01Z
2019-10-22T03:07:39Z,42.805,6.029,13.2960,4.59959,2469.97,2019-10-22T05:08:04Z
2019-10-22T03:10:42Z,42.805,6.029,13.2958,4.59958,2469.947,2019-10-22T05:11:08Z
2019-10-22T03:13:45Z,42.805,6.029,13.2958,4.59957,2469.923,2019-10-22T05:14:11Z
2019-10-22T03:16:48Z,42.805,6.029,13.2963,4.59958,2469.937,2019-10-22T05:17:14Z
2019-10-22T03:19:52Z,42.805,6.029,13.2958,4.59966,2469.96,2019-10-22T05:20:17Z
2019-10-22T03:22:55Z,42.805,6.029,13.2958,4.59961,2469.947,2019-10-22T05:23:21Z
2019-10-22T03:25:58Z,42.805,6.029,13.2953,4.59958,2469.947,2019-10-22T05:26:24Z
2019-10-22T03:29:01Z,42.805,6.029,13.2960,4.59958,2469.97,2019-10-22T05:29:27Z
2019-10-22T03:32:04Z,42.805,6.029,13.2964,4.59958,2469.97,2019-10-22T05:32:30Z
2019-10-22T03:35:08Z,42.805,6.029,13.2962,4.59962,2469.96,2019-10-22T05:35:34Z
2019-10-22T03:38:11Z,42.805,6.029,13.2961,4.59959,2469.914,2019-10-22T05:38:37Z
2019-10-22T03:41:14Z,42.805,6.029,13.2958,4.59960,2469.993,2019-10-22T05:41:40Z
2019-10-22T03:44:17Z,42.805,6.029,13.2961,4.59960,2469.937,2019-10-22T05:44:43Z
2019-10-22T03:47:21Z,42.805,6.029,13.2961,4.59961,2469.923,2019-10-22T05:47:47Z
2019-10-22T03:50:24Z,42.805,6.029,13.2960,4.59958,2469.923,2019-10-22T05:50:50Z
2019-10-22T03:53:27Z,42.805,6.029,13.2959,4.59963,2469.984,2019-10-22T05:53:53Z
2019-10-22T03:56:30Z,42.805,6.029,13.2961,4.59958,2469.96,2019-10-22T05:56:56Z
2019-10-22T03:59:34Z,42.805,6.029,13.2960,4.59963,2469.923,2019-10-22T05:59:59Z
2019-10-22T04:02:37Z,42.805,6.029,13.2959,4.59961,2469.923,2019-10-22T06:03:03Z
2019-10-22T04:05:40Z,42.805,6.029,13.2962,4.59960,2469.914,2019-10-22T06:06:06Z
2019-10-22T04:08:43Z,42.805,6.029,13.2961,4.59959,2469.947,2019-10-22T06:09:09Z
2019-10-22T04:11:47Z,42.805,6.029,13.2961,4.59961,2469.96,2019-10-22T06:12:12Z
2019-10-22T04:14:50Z,42.805,6.029,13.2957,4.59961,2469.96,2019-10-22T06:15:16Z
2019-10-22T04:17:53Z,42.805,6.029,13.2960,4.59960,2469.937,2019-10-22T06:18:19Z
2019-10-22T04:20:56Z,42.805,6.029,13.2964,4.59961,2469.886,2019-10-22T06:21:22Z
2019-10-22T04:23:59Z,42.805,6.029,13.2960,4.59958,2469.937,2019-10-22T06:24:25Z
2019-10-22T04:27:03Z,42.805,6.029,13.2957,4.59958,2469.923,2019-10-22T06:27:29Z
2019-10-22T04:30:06Z,42.805,6.029,13.2960,4.59958,2469.923,2019-10-22T06:30:32Z
2019-10-22T04:33:09Z,42.805,6.029,13.2958,4.59961,2469.96,2019-10-22T06:33:35Z
2019-10-22T04:36:12Z,42.805,6.029,13.2962,4.59960,2469.9,2019-10-22T06:36:38Z
2019-10-22T04:39:16Z,42.805,6.029,13.2957,4.59961,2469.9,2019-10-22T06:39:42Z
2019-10-22T04:42:19Z,42.805,6.029,13.2958,4.59960,2469.937,2019-10-22T06:42:45Z
2019-10-22T04:45:22Z,42.805,6.029,13.2957,4.59958,2469.9,2019-10-22T06:45:48Z
2019-10-22T04:48:25Z,42.805,6.029,13.2960,4.59961,2469.9,2019-10-22T06:48:51Z
2019-10-22T04:51:28Z,42.805,6.029,13.2963,4.59961,2469.9,2019-10-22T06:51:54Z
2019-10-22T04:54:32Z,42.805,6.029,13.2960,4.59961,2469.947,2019-10-22T06:54:58Z
2019-10-22T04:57:35Z,42.805,6.029,13.2960,4.59961,2469.9,2019-10-22T06:58:01Z
2019-10-22T05:00:38Z,42.805,6.029,13.2959,4.59964,2469.984,2019-10-22T07:01:04Z
2019-10-22T05:03:41Z,42.805,6.029,13.2961,4.59962,2469.937,2019-10-22T07:04:07Z
2019-10-22T05:06:44Z,42.805,6.029,13.2955,4.59960,2469.937,2019-10-22T07:07:10Z
2019-10-22T05:09:48Z,42.805,6.029,13.2958,4.59961,2469.9,2019-10-22T07:10:13Z
2019-10-22T05:12:51Z,42.805,6.029,13.2961,4.59960,2469.9,2019-10-22T07:13:17Z
2019-10-22T05:15:54Z,42.805,6.029,13.2956,4.59965,2469.9,2019-10-22T07:16:20Z
2019-10-22T05:18:57Z,42.805,6.029,13.2957,4.59966,2469.89,2019-10-22T07:19:23Z
2019-10-22T05:22:00Z,42.805,6.029,13.2961,4.59961,2469.923,2019-10-22T07:22:26Z
2019-10-22T05:25:04Z,42.805,6.029,13.2958,4.59959,2469.9,2019-10-22T07:25:30Z
2019-10-22T05:28:07Z,42.805,6.029,13.2958,4.59958,2469.9,2019-10-22T07:28:33Z
2019-10-22T05:31:10Z,42.805,6.029,13.2958,4.59958,2469.937,2019-10-22T07:31:36Z
2019-10-22T05:34:13Z,42.805,6.029,13.2959,4.59961,2469.914,2019-10-22T07:34:39Z
2019-10-22T05:37:17Z,42.805,6.029,13.2958,4.59959,2469.914,2019-10-22T07:37:43Z
2019-10-22T05:40:20Z,42.805,6.029,13.2955,4.59960,2469.914,2019-10-22T07:40:46Z
2019-10-22T05:43:23Z,42.805,6.029,13.2958,4.59960,2469.9,2019-10-22T07:43:49Z
2019-10-22T05:46:26Z,42.805,6.029,13.2960,4.59961,2469.867,2019-10-22T07:46:52Z
2019-10-22T05:49:30Z,42.805,6.029,13.2960,4.59958,2469.923,2019-10-22T07:49:55Z
2019-10-22T05:52:33Z,42.805,6.029,13.2961,4.59958,2469.876,2019-10-22T07:52:59Z
2019-10-22T05:55:36Z,42.805,6.029,13.2962,4.59958,2469.914,2019-10-22T07:56:02Z
2019-10-22T05:58:39Z,42.805,6.029,13.2958,4.59961,2469.876,2019-10-22T07:59:05Z
2019-10-22T06:01:42Z,42.805,6.029,13.2958,4.59960,2469.89,2019-10-22T08:02:08Z
2019-10-22T06:04:45Z,42.805,6.029,13.2959,4.59959,2469.89,2019-10-22T08:05:11Z
2019-10-22T06:07:49Z,42.805,6.029,13.2959,4.59958,2469.876,2019-10-22T08:08:15Z
2019-10-22T06:10:52Z,42.805,6.029,13.2957,4.59961,2469.914,2019-10-22T08:11:18Z
2019-10-22T06:13:55Z,42.805,6.029,13.2954,4.59962,2469.9,2019-10-22T08:14:21Z
2019-10-22T06:16:59Z,42.805,6.029,13.2958,4.59961,2469.89,2019-10-22T08:17:24Z
2019-10-22T06:20:02Z,42.805,6.029,13.2957,4.59961,2469.9,2019-10-22T08:20:28Z
2019-10-22T06:23:05Z,42.805,6.029,13.2960,4.59959,2469.914,2019-10-22T08:23:31Z
2019-10-22T06:26:08Z,42.805,6.029,13.2956,4.59961,2469.876,2019-10-22T08:26:34Z
2019-10-22T06:29:12Z,42.805,6.029,13.2959,4.59962,2469.876,2019-10-22T08:29:37Z
2019-10-22T06:32:15Z,42.805,6.029,13.2957,4.59961,2469.89,2019-10-22T08:32:41Z
2019-10-22T06:35:18Z,42.805,6.029,13.2957,4.59958,2469.89,2019-10-22T08:35:44Z
2019-10-22T06:38:21Z,42.805,6.029,13.2957,4.59960,2469.9,2019-10-22T08:38:47Z
2019-10-22T06:41:24Z,42.805,6.029,13.2960,4.59958,2469.9,2019-10-22T08:41:50Z
2019-10-22T06:44:28Z,42.805,6.029,13.2957,4.59960,2469.914,2019-10-22T08:44:53Z
2019-10-22T06:47:31Z,42.805,6.029,13.2960,4.59960,2469.89,2019-10-22T08:47:57Z
2019-10-22T06:50:34Z,42.805,6.029,13.2961,4.59958,2469.876,2019-10-22T08:51:00Z
2019-10-22T06:53:37Z,42.805,6.029,13.2961,4.59958,2469.876,2019-10-22T08:54:03Z
2019-10-22T06:56:40Z,42.805,6.029,13.2957,4.59958,2469.914,2019-10-22T08:57:06Z
2019-10-22T06:59:44Z,42.805,6.029,13.2961,4.59959,2469.9,2019-10-22T09:00:10Z
2019-10-22T07:02:47Z,42.805,6.029,13.2954,4.59960,2469.9,2019-10-22T09:03:13Z
2019-10-22T07:05:50Z,42.805,6.029,13.2958,4.59960,2469.9,2019-10-22T09:06:16Z
2019-10-22T07:08:53Z,42.805,6.029,13.2959,4.59958,2469.867,2019-10-22T09:09:19Z
2019-10-22T07:11:56Z,42.805,6.029,13.2959,4.59958,2469.914,2019-10-22T09:12:22Z
2019-10-22T07:15:00Z,42.805,6.029,13.2958,4.59961,2469.9,2019-10-22T09:15:26Z
2019-10-22T07:18:03Z,42.805,6.029,13.2959,4.59958,2469.876,2019-10-22T09:18:29Z
2019-10-22T07:21:06Z,42.805,6.029,13.2958,4.59958,2469.9,2019-10-22T09:21:32Z
2019-10-22T07:24:09Z,42.805,6.029,13.2955,4.59961,2469.9,2019-10-22T09:24:35Z
2019-10-22T07:27:12Z,42.805,6.029,13.2962,4.59960,2469.89,2019-10-22T09:27:38Z
2019-10-22T07:30:16Z,42.805,6.029,13.2959,4.59958,2469.89,2019-10-22T09:30:42Z
2019-10-22T07:33:19Z,42.805,6.029,13.2961,4.59958,2469.89,2019-10-22T09:33:45Z
2019-10-22T07:36:22Z,42.805,6.029,13.2958,4.59961,2469.876,2019-10-22T09:36:48Z
2019-10-22T07:39:25Z,42.805,6.029,13.2958,4.59959,2469.876,2019-10-22T09:39:51Z
2019-10-22T07:42:28Z,42.805,6.029,13.2958,4.59958,2469.89,2019-10-22T09:42:54Z
2019-10-22T07:45:32Z,42.805,6.029,13.2957,4.59958,2469.9,2019-10-22T09:45:58Z
2019-10-22T07:48:35Z,42.805,6.029,13.2953,4.59958,2469.876,2019-10-22T09:49:01Z
2019-10-22T07:51:38Z,42.805,6.029,13.2956,4.59958,2469.9,2019-10-22T09:52:04Z
2019-10-22T07:54:41Z,42.805,6.029,13.2960,4.59957,2469.9,2019-10-22T09:55:07Z
2019-10-22T07:57:45Z,42.805,6.029,13.2957,4.59958,2469.876,2019-10-22T09:58:10Z
2019-10-22T08:00:48Z,42.805,6.029,13.2959,4.59959,2469.886,2019-10-22T10:01:14Z
2019-10-22T08:03:51Z,42.805,6.029,13.2956,4.59958,2469.89,2019-10-22T10:04:17Z
2019-10-22T08:06:54Z,42.805,6.029,13.2960,4.59958,2469.867,2019-10-22T10:07:20Z
2019-10-22T08:09:57Z,42.805,6.029,13.2957,4.59956,2469.876,2019-10-22T10:10:23Z
2019-10-22T08:13:01Z,42.805,6.029,13.2958,4.59957,2469.89,2019-10-22T10:13:27Z
2019-10-22T08:16:04Z,42.805,6.029,13.2961,4.59959,2469.876,2019-10-22T10:16:30Z
2019-10-22T08:19:07Z,42.805,6.029,13.2961,4.59958,2469.876,2019-10-22T10:19:33Z
2019-10-22T08:22:10Z,42.805,6.029,13.2958,4.59960,2469.937,2019-10-22T10:22:36Z
2019-10-22T08:25:13Z,42.805,6.029,13.2958,4.59961,2469.914,2019-10-22T10:25:39Z
2019-10-22T08:28:17Z,42.805,6.029,13.2961,4.59958,2469.89,2019-10-22T10:28:42Z
2019-10-22T08:31:20Z,42.805,6.029,13.2958,4.59956,2469.9,2019-10-22T10:31:46Z
2019-10-22T08:34:23Z,42.805,6.029,13.2958,4.59958,2469.937,2019-10-22T10:34:49Z
2019-10-22T08:37:26Z,42.805,6.029,13.2957,4.59958,2469.9,2019-10-22T10:37:52Z
2019-10-22T08:40:30Z,42.805,6.029,13.2956,4.59957,2469.914,2019-10-22T10:40:55Z
2019-10-22T08:43:33Z,42.805,6.029,13.2956,4.59956,2469.876,2019-10-22T10:43:59Z
2019-10-22T08:46:36Z,42.805,6.029,13.2957,4.59958,2469.914,2019-10-22T10:47:02Z
2019-10-22T08:49:39Z,42.805,6.029,13.2956,4.59957,2469.937,2019-10-22T10:50:05Z
2019-10-22T08:52:42Z,42.805,6.029,13.2957,4.59957,2469.89,2019-10-22T10:53:08Z
2019-10-22T08:55:46Z,42.805,6.029,13.2957,4.59958,2469.914,2019-10-22T10:56:11Z
2019-10-22T08:58:49Z,42.805,6.029,13.2958,4.59961,2469.923,2019-10-22T10:59:15Z
2019-10-22T09:01:52Z,42.805,6.029,13.2957,4.59956,2469.923,2019-10-22T11:02:18Z
2019-10-22T09:04:55Z,42.805,6.029,13.2958,4.59956,2469.937,2019-10-22T11:05:21Z
2019-10-22T09:07:58Z,42.805,6.029,13.2958,4.59957,2469.923,2019-10-22T11:08:24Z
2019-10-22T09:11:02Z,42.805,6.029,13.2959,4.59956,2469.937,2019-10-22T11:11:27Z
2019-10-22T09:14:05Z,42.805,6.029,13.2956,4.59956,2469.937,2019-10-22T11:14:31Z
2019-10-22T09:17:08Z,42.805,6.029,13.2955,4.59958,2469.923,2019-10-22T11:17:34Z
2019-10-22T09:20:11Z,42.805,6.029,13.2958,4.59957,2469.914,2019-10-22T11:20:37Z
2019-10-22T09:23:15Z,42.805,6.029,13.2954,4.59957,2469.9,2019-10-22T11:23:40Z
2019-10-22T09:26:18Z,42.805,6.029,13.2959,4.59958,2469.96,2019-10-22T11:26:44Z
2019-10-22T09:29:21Z,42.805,6.029,13.2953,4.59958,2469.937,2019-10-22T11:29:47Z
2019-10-22T09:32:24Z,42.805,6.029,13.2957,4.59956,2469.947,2019-10-22T11:32:50Z
2019-10-22T09:35:28Z,42.805,6.029,13.2957,4.59956,2469.937,2019-10-22T11:35:53Z
2019-10-22T09:38:31Z,42.805,6.029,13.2958,4.59956,2469.914,2019-10-22T11:38:57Z
2019-10-22T09:41:34Z,42.805,6.029,13.2958,4.59957,2469.923,2019-10-22T11:42:00Z
2019-10-22T09:44:37Z,42.805,6.029,13.2956,4.59958,2469.914,2019-10-22T11:45:03Z
2019-10-22T09:47:40Z,42.805,6.029,13.2957,4.59956,2469.923,2019-10-22T11:48:06Z
2019-10-22T09:50:44Z,42.805,6.029,13.2958,4.59958,2469.923,2019-10-22T11:51:10Z
2019-10-22T09:53:47Z,42.805,6.029,13.2956,4.59957,2469.947,2019-10-22T11:54:13Z
2019-10-22T09:56:50Z,42.805,6.029,13.2960,4.59956,2469.947,2019-10-22T11:57:16Z
2019-10-22T09:59:54Z,42.805,6.029,13.2956,4.59956,2469.937,2019-10-22T12:00:20Z
2019-10-22T10:02:57Z,42.805,6.029,13.2955,4.59958,2469.947,2019-10-22T12:03:23Z
2019-10-22T10:06:00Z,42.805,6.029,13.2957,4.59956,2469.947,2019-10-22T12:06:26Z
2019-10-22T10:09:03Z,42.805,6.029,13.2958,4.59958,2469.947,2019-10-22T12:09:29Z
2019-10-22T10:12:06Z,42.805,6.029,13.2954,4.59957,2469.96,2019-10-22T12:12:32Z
2019-10-22T10:15:10Z,42.805,6.029,13.2958,4.59956,2469.923,2019-10-22T12:15:36Z
2019-10-22T10:18:13Z,42.805,6.029,13.2957,4.59958,2469.984,2019-10-22T12:18:39Z
2019-10-22T10:21:16Z,42.805,6.029,13.2960,4.59956,2469.984,2019-10-22T12:21:42Z
2019-10-22T10:24:19Z,42.805,6.029,13.2958,4.59956,2469.993,2019-10-22T12:24:45Z
2019-10-22T10:27:23Z,42.805,6.029,13.2958,4.59957,2469.947,2019-10-22T12:27:49Z
2019-10-22T10:30:26Z,42.805,6.029,13.2957,4.59957,2469.97,2019-10-22T12:30:52Z
2019-10-22T10:33:30Z,42.805,6.029,13.2961,4.59956,2469.97,2019-10-22T12:33:56Z
2019-10-22T10:36:33Z,42.805,6.029,13.2957,4.59956,2469.97,2019-10-22T12:36:59Z
2019-10-22T10:39:36Z,42.805,6.029,13.2953,4.59958,2469.993,2019-10-22T12:40:02Z
2019-10-22T10:42:39Z,42.805,6.029,13.2957,4.59957,2469.96,2019-10-22T12:43:05Z
2019-10-22T10:45:43Z,42.805,6.029,13.2958,4.59957,2469.984,2019-10-22T12:46:09Z
2019-10-22T10:48:46Z,42.805,6.029,13.2958,4.59957,2469.984,2019-10-22T12:49:12Z
2019-10-22T10:51:49Z,42.805,6.029,13.2955,4.59957,2469.993,2019-10-22T12:52:15Z
2019-10-22T10:54:52Z,42.805,6.029,13.2958,4.59958,2469.97,2019-10-22T12:55:18Z
2019-10-22T10:57:56Z,42.805,6.029,13.2958,4.59956,2469.96,2019-10-22T12:58:21Z
2019-10-22T11:00:59Z,42.805,6.029,13.2957,4.59957,2469.993,2019-10-22T13:01:25Z
2019-10-22T11:04:02Z,42.805,6.029,13.2956,4.59956,2469.97,2019-10-22T13:04:28Z
2019-10-22T11:07:05Z,42.805,6.029,13.2957,4.59958,2469.97,2019-10-22T13:07:31Z
2019-10-22T11:10:08Z,42.805,6.029,13.2961,4.59957,2469.984,2019-10-22T13:10:34Z
2019-10-22T11:13:12Z,42.805,6.029,13.2955,4.59956,2470.007,2019-10-22T13:13:38Z
2019-10-22T11:16:15Z,42.805,6.029,13.2957,4.59957,2469.993,2019-10-22T13:16:41Z
2019-10-22T11:19:18Z,42.805,6.029,13.2957,4.59957,2469.97,2019-10-22T13:19:44Z
2019-10-22T11:22:21Z,42.805,6.029,13.2958,4.59958,2469.984,2019-10-22T13:22:47Z
2019-10-22T11:25:25Z,42.805,6.029,13.2956,4.59956,2469.97,2019-10-22T13:25:51Z
2019-10-22T11:28:28Z,42.805,6.029,13.2958,4.59957,2469.993,2019-10-22T13:28:54Z
2019-10-22T11:31:31Z,42.805,6.029,13.2955,4.59956,2469.97,2019-10-22T13:31:57Z
2019-10-22T11:34:35Z,42.805,6.029,13.2959,4.59957,2470.007,2019-10-22T13:35:01Z
2019-10-22T11:37:38Z,42.805,6.029,13.2958,4.59956,2470.007,2019-10-22T13:38:04Z
2019-10-22T11:40:41Z,42.805,6.029,13.2957,4.59957,2469.984,2019-10-22T13:41:07Z
2019-10-22T11:43:44Z,42.805,6.029,13.2959,4.59956,2470.017,2019-10-22T13:44:10Z
2019-10-22T11:46:48Z,42.805,6.029,13.2958,4.59957,2469.984,2019-10-22T13:47:14Z
2019-10-22T11:49:51Z,42.805,6.029,13.2957,4.59957,2469.993,2019-10-22T13:50:17Z
2019-10-22T11:52:54Z,42.805,6.029,13.2958,4.59956,2470.017,2019-10-22T13:53:20Z
2019-10-22T11:55:57Z,42.805,6.029,13.2959,4.59956,2469.984,2019-10-22T13:56:23Z
2019-10-22T11:59:01Z,42.805,6.029,13.2964,4.59956,2469.993,2019-10-22T13:59:27Z
2019-10-22T12:02:04Z,42.805,6.029,13.2962,4.59956,2469.97,2019-10-22T14:02:30Z
2019-10-22T12:05:07Z,42.805,6.029,13.2959,4.59957,2469.993,2019-10-22T14:05:33Z
2019-10-22T12:08:10Z,42.805,6.029,13.2954,4.59956,2469.993,2019-10-22T14:08:36Z
2019-10-22T12:11:14Z,42.805,6.029,13.2957,4.59956,2470.03,2019-10-22T14:11:39Z
2019-10-22T12:14:17Z,42.805,6.029,13.2959,4.59956,2469.97,2019-10-22T14:14:43Z
2019-10-22T12:17:20Z,42.805,6.029,13.2955,4.59956,2470.003,2019-10-22T14:17:46Z
2019-10-22T12:20:23Z,42.805,6.029,13.2957,4.59956,2469.97,2019-10-22T14:20:49Z
2019-10-22T12:23:26Z,42.805,6.029,13.2957,4.59957,2470.03,2019-10-22T14:23:52Z
2019-10-22T12:26:30Z,42.805,6.029,13.2957,4.59956,2470.017,2019-10-22T14:26:56Z
2019-10-22T12:29:33Z,42.805,6.029,13.2961,4.59956,2469.979,2019-10-22T14:29:59Z
2019-10-22T12:32:36Z,42.805,6.029,13.2957,4.59956,2469.97,2019-10-22T14:33:02Z
2019-10-22T12:35:39Z,42.805,6.029,13.2957,4.59956,2469.993,2019-10-22T14:36:05Z
2019-10-22T12:38:43Z,42.805,6.029,13.2956,4.59956,2469.984,2019-10-22T14:39:08Z
2019-10-22T12:41:46Z,42.805,6.029,13.2957,4.59957,2470.017,2019-10-22T14:42:12Z
2019-10-22T12:44:49Z,42.805,6.029,13.2957,4.59956,2470.017,2019-10-22T14:45:15Z
2019-10-22T12:47:52Z,42.805,6.029,13.2957,4.59955,2469.993,2019-10-22T14:48:18Z
2019-10-22T12:50:55Z,42.805,6.029,13.2957,4.59956,2470.017,2019-10-22T14:51:21Z
2019-10-22T12:53:58Z,42.805,6.029,13.2958,4.59958,2470.03,2019-10-22T14:54:24Z
2019-10-22T12:57:02Z,42.805,6.029,13.2956,4.59958,2470.017,2019-10-22T14:57:28Z
2019-10-22T13:00:05Z,42.805,6.029,13.2953,4.59956,2470.017,2019-10-22T15:00:31Z
2019-10-22T13:03:08Z,42.805,6.029,13.2957,4.59956,2470.007,2019-10-22T15:03:34Z
2019-10-22T13:06:11Z,42.805,6.029,13.2957,4.59956,2470.017,2019-10-22T15:06:37Z
2019-10-22T13:09:15Z,42.805,6.029,13.2956,4.59958,2470.053,2019-10-22T15:09:41Z
2019-10-22T13:12:18Z,42.805,6.029,13.2956,4.59956,2470.03,2019-10-22T15:12:44Z
2019-10-22T13:15:21Z,42.805,6.029,13.2958,4.59956,2470.017,2019-10-22T15:15:47Z
2019-10-22T13:18:24Z,42.805,6.029,13.2957,4.59957,2470.04,2019-10-22T15:18:50Z
2019-10-22T13:21:27Z,42.805,6.029,13.2958,4.59957,2470.017,2019-10-22T15:21:53Z
2019-10-22T13:24:31Z,42.805,6.029,13.2958,4.59956,2470.017,2019-10-22T15:24:57Z
2019-10-22T13:27:34Z,42.805,6.029,13.2957,4.59957,2469.993,2019-10-22T15:28:00Z
2019-10-22T13:30:37Z,42.805,6.029,13.2958,4.59957,2470.04,2019-10-22T15:31:03Z
2019-10-22T13:33:41Z,42.805,6.029,13.2959,4.59956,2470.03,2019-10-22T15:34:07Z
2019-10-22T13:36:44Z,42.805,6.029,13.2959,4.59955,2470.03,2019-10-22T15:37:10Z
2019-10-22T13:39:47Z,42.805,6.029,13.2958,4.59956,2470.063,2019-10-22T15:40:13Z
2019-10-22T13:42:50Z,42.805,6.029,13.2956,4.59957,2470.017,2019-10-22T15:43:16Z
2019-10-22T13:45:53Z,42.805,6.029,13.2961,4.59955,2470.077,2019-10-22T15:46:19Z
2019-10-22T13:48:57Z,42.805,6.029,13.2958,4.59956,2470.04,2019-10-22T15:49:23Z
2019-10-22T13:52:00Z,42.805,6.029,13.2957,4.59956,2470.017,2019-10-22T15:52:26Z
2019-10-22T13:55:03Z,42.805,6.029,13.2958,4.59957,2470.04,2019-10-22T15:55:29Z
2019-10-22T13:58:06Z,42.805,6.029,13.2958,4.59955,2470.017,2019-10-22T15:58:32Z
2019-10-22T14:01:10Z,42.805,6.029,13.2955,4.59956,2470.04,2019-10-22T16:01:36Z
2019-10-22T14:04:13Z,42.805,6.029,13.2958,4.59954,2470.017,2019-10-22T16:04:39Z
2019-10-22T14:07:16Z,42.805,6.029,13.2954,4.59955,2470.04,2019-10-22T16:07:42Z
2019-10-22T14:10:19Z,42.805,6.029,13.2957,4.59956,2470.017,2019-10-22T16:10:45Z
2019-10-22T14:13:22Z,42.805,6.029,13.2959,4.59956,2470.053,2019-10-22T16:13:48Z
2019-10-22T14:16:26Z,42.805,6.029,13.2958,4.59956,2470.04,2019-10-22T16:16:52Z
2019-10-22T14:19:29Z,42.805,6.029,13.2955,4.59956,2470.087,2019-10-22T16:19:55Z
2019-10-22T14:22:32Z,42.805,6.029,13.2957,4.59956,2470.077,2019-10-22T16:22:58Z
2019-10-22T14:25:35Z,42.805,6.029,13.2960,4.59957,2470.053,2019-10-22T16:26:01Z
2019-10-22T14:28:39Z,42.805,6.029,13.2957,4.59959,2470.017,2019-10-22T16:29:05Z
2019-10-22T14:31:42Z,42.805,6.029,13.2959,4.59956,2470.04,2019-10-22T16:32:08Z
2019-10-22T14:34:45Z,42.805,6.029,13.2957,4.59955,2470.017,2019-10-22T16:35:11Z
2019-10-22T14:37:48Z,42.805,6.029,13.2961,4.59955,2470.04,2019-10-22T16:38:14Z
2019-10-22T14:40:51Z,42.805,6.029,13.2961,4.59955,2470.053,2019-10-22T16:41:17Z
2019-10-22T14:43:55Z,42.805,6.029,13.2955,4.59956,2470.063,2019-10-22T16:44:21Z
2019-10-22T14:46:58Z,42.805,6.029,13.2961,4.59956,2470.077,2019-10-22T16:47:24Z
2019-10-22T14:50:01Z,42.805,6.029,13.2960,4.59956,2470.053,2019-10-22T16:50:27Z
2019-10-22T14:53:04Z,42.805,6.029,13.2955,4.59955,2470.04,2019-10-22T16:53:30Z
2019-10-22T14:56:08Z,42.805,6.029,13.2956,4.59955,2470.077,2019-10-22T16:56:33Z
2019-10-22T14:59:11Z,42.805,6.029,13.2959,4.59958,2470.03,2019-10-22T16:59:37Z
2019-10-22T15:02:14Z,42.805,6.029,13.2956,4.59956,2470.04,2019-10-22T17:02:40Z